CDT,Max TemperatureF,Mean TemperatureF,Min TemperatureF,Max Dew PointF,MeanDew PointF,Min DewpointF,Max Humidity, Mean Humidity, Min Humidity, Max Sea Level PressureIn, Mean Sea Level PressureIn, Min Sea Level PressureIn, Max VisibilityMiles, Mean VisibilityMiles, Min VisibilityMiles, Max Wind SpeedMPH, Mean Wind SpeedMPH, Max Gust SpeedMPH,PrecipitationIn, CloudCover, Events, WindDirDegrees
2010-10-1,84,72,59,57,44,34,67,42,17,30.00,29.95,29.91,10,10,10,21,10,30,0.00,0,,355
2010-10-2,85,68,50,49,41,32,77,47,16,30.04,29.98,29.92,10,10,10,22,7,35,0.00,0,,353
2010-10-3,74,65,55,50,42,36,72,49,25,30.23,30.15,30.05,10,10,10,20,13,24,0.00,0,,7
2010-10-4,73,60,46,40,36,29,71,46,20,30.32,30.26,30.21,10,10,10,18,7,28,0.00,0,,18
2010-10-5,75,58,40,43,38,34,85,54,23,30.38,30.30,30.23,10,10,10,15,4,23,0.00,0,,20
2010-10-6,81,62,42,45,37,29,89,53,16,30.32,30.24,30.15,10,10,9,14,3,23,0.00,0,,338
2010-10-7,87,65,42,47,40,34,89,52,15,30.23,30.15,30.09,10,10,9,12,0,0,0.00,0,,315
2010-10-8,90,71,52,54,49,47,83,54,24,30.15,30.08,30.02,10,10,10,10,1,20,0.00,0,,277
2010-10-9,92,74,55,57,53,47,86,55,23,30.09,30.03,29.97,10,10,8,9,1,16,0.00,0,,323
2010-10-10,92,74,55,57,52,45,93,57,20,30.03,29.96,29.88,10,10,8,14,1,,0.00,1,,85
2010-10-11,86,73,60,60,54,49,84,57,29,30.00,29.93,29.88,10,10,8,20,4,22,0.00,2,,212
2010-10-12,87,73,58,62,58,53,97,66,34,29.99,29.93,29.86,10,9,2,13,3,30,0.01,3,Rain-Thunderstorm,290
2010-10-13,82,68,54,59,56,53,100,71,42,30.08,30.02,29.97,10,8,3,16,4,24,0.00,1,,327
2010-10-14,78,62,46,57,45,32,84,53,22,30.20,30.13,30.08,10,10,10,20,8,33,0.00,0,,355
2010-10-15,83,62,41,44,38,32,86,51,16,30.16,30.09,30.01,10,10,10,20,4,33,0.00,0,,297
2010-10-16,84,65,45,47,41,32,93,55,16,30.18,30.13,30.09,10,10,10,7,1,,0.00,0,,350
2010-10-17,86,65,44,45,41,32,86,51,15,30.19,30.10,30.01,10,10,10,21,1,,0.00,0,,39
2010-10-18,84,68,52,53,49,45,77,52,27,30.06,29.99,29.91,10,10,10,28,2,,0.00,1,,260
2010-10-19,84,71,57,67,60,50,100,74,47,30.00,29.95,29.90,10,8,1,15,3,20,0.20,4,Rain-Thunderstorm,283
2010-10-20,79,66,52,63,57,51,93,66,39,30.05,30.00,29.96,10,8,3,12,5,33,0.01,3,Rain,329
2010-10-21,84,66,48,57,49,42,100,62,24,30.09,30.04,29.99,10,8,3,12,0,0,0.00,0,,304
2010-10-22,86,67,48,53,45,40,93,57,21,30.16,30.09,30.04,10,10,7,9,3,,0.00,0,,124
2010-10-23,86,69,51,56,47,40,89,55,20,30.15,30.09,30.01,10,10,10,13,5,22,0.00,0,,154
2010-10-24,87,75,63,70,65,58,100,72,44,30.09,29.98,29.85,10,8,4,28,8,39,0.01,3,,165
2010-10-25,88,74,59,70,62,56,90,67,43,29.95,29.77,29.64,10,10,9,16,7,29,0.02,3,Rain,184
2010-10-26,88,79,69,72,69,63,90,70,50,29.81,29.71,29.65,10,10,10,20,7,28,0.14,7,Thunderstorm,199
2010-10-27,83,74,65,75,71,63,94,82,69,30.04,29.94,29.81,10,8,0,12,3,45,1.43,6,Fog-Rain-Thunderstorm,334
2010-10-28,73,63,52,72,44,30,100,61,22,30.32,30.21,30.04,10,9,3,16,10,32,0.22,2,Rain-Thunderstorm,343
2010-10-29,67,54,40,41,37,34,89,59,29,30.39,30.30,30.22,10,10,10,17,6,24,0.00,0,,360
2010-10-30,76,56,36,42,38,32,100,61,21,30.22,30.14,30.04,10,10,10,8,1,13,0.00,0,,143
2010-10-31,77,60,43,50,44,39,89,58,26,30.11,30.05,30.00,10,10,10,7,1,10,0.00,0,,179